Weather Roundup
Issued by NWS

Home | Current Version | Previous Version | Graphics & Text | Print | Product List | Glossary Off
Versions: 1 2 3 4 5 6 7 8 9 10 11 12 13 14 15 16 17 18 19 20 21 22 23 24 25 26 27 28 29 30 31 32 33 34 35 36 37 38 39 40 41 42 43 44 45 46 47 48 49 50

000
NZUS93 KARX 191459
HRRWXR

CURRENT HOURLY OBSERVATIONS ACROSS
MUCH OF THE UPPER MISSISSIPPI VALLEY
NATIONAL WEATHER SERVICE LA CROSSE WI
900 AM CST FRI DEC 19 2014


...SOUTHEAST MINNESOTA...


CITY           SKY/WX    TMP DP  RH WIND       PRES   REMARKS
ROCHESTER      CLOUDY    23  19  85 S9        30.24S WCI  13
ROCHESTER/MAYO CLOUDY    24  18  80 SE7       30.25S WCI  16
WINONA         CLOUDY    28  21  74 SE5       30.30S WCI  23
AUSTIN         CLOUDY    25  21  86 S6        30.24S FOG     WCI  18
ALBERT LEA     MOCLDY    25  25 100 SE8       30.23S FOG     WCI  16
DODGE CENTER   CLOUDY    25  21  86 S7        30.23S FOG     WCI  17
PRESTON        CLOUDY    23  19  85 S6        30.26S WCI  16
OWATONNA       PTCLDY    25  21  86 SE8       30.22F FOG     WCI  16
FARIBAULT      CLOUDY    27  21  80 SE6       30.23S FOG     WCI  20
$$

...ELSEWHERE IN MINNESOTA...


CITY           SKY/WX    TMP DP  RH WIND       PRES   REMARKS
MINNEAPOLIS    CLOUDY    23  18  81 SE7       30.25S WCI  15
INTNL FALLS    CLOUDY    21  17  84 SE8       30.16S WCI  11
DULUTH         FOG       22  18  85 S6        30.21R VSB 1   WCI  14
RED WING       CLOUDY    25  19  80 SE6       30.27S WCI  18
REDWOOD FALLS  CLOUDY    28  26  92 S9        30.18R FOG     WCI  19
MANKATO        CLOUDY    27  21  80 S9        30.22S WCI  17
WORTHINGTON    CLOUDY    28  27  93 S10       30.16S WCI  19
FAIRMONT       CLOUDY    27  23  86 S10       30.20S WCI  17
$$

...SOUTHWEST WISCONSIN...


CITY           SKY/WX    TMP DP  RH WIND       PRES   REMARKS
LA CROSSE      CLOUDY    26  18  71 SE5       30.31R WCI  20
PRAIRIE DU CHI CLOUDY    26  19  74 E3        30.31R
BOSCOBEL       PTSUNNY   26  19  74 CALM      30.32R
LONE ROCK      NOT AVBL
PLATTEVILLE    MOSUNNY   24  20  83 CALM      30.30S
FORT MC COY    CLOUDY    24  19  78 CALM      30.31R
VIROQUA        CLOUDY    23  19  87 CALM      30.27R
WIS DELLS      NOT AVBL
$$

...ELSEWHERE IN WISCONSIN...


CITY           SKY/WX    TMP DP  RH WIND       PRES   REMARKS
MILWAUKEE      CLOUDY    27  18  69 NW9       30.31R WCI  18
MADISON        CLOUDY    25  20  81 VRB3      30.30R
GREEN BAY      SUNNY     21  18  88 CALM      30.32R
EAU CLAIRE     NOT AVBL
BLACK RVR FLS  CLOUDY    24  19  81 CALM      30.29S
MEDFORD        CLOUDY    22  19  88 S5        30.24S WCI  16
WAUSAU         CLOUDY    18  14  84 CALM      30.26S
WIS RAPIDS     CLOUDY    22  18  85 E3        30.30S
MARSHFIELD     CLOUDY    23  20  88 S3        30.26S
RICE LAKE      CLOUDY    24  20  87 S6        30.28R WCI  16
$$

...NORTHEAST IOWA...


CITY           SKY/WX    TMP DP  RH WIND       PRES   REMARKS
DECORAH        CLOUDY    25  19  80 CALM      30.27R
MASON CITY     CLOUDY    25  22  88 SE9       30.25S WCI  15
CHARLES CITY   CLOUDY    25  21  86 SE6       30.27S WCI  18
OELWEIN        CLOUDY    25  21  86 CALM      30.28S
$$

...ELSEWHERE IN IOWA...


CITY           SKY/WX    TMP DP  RH WIND       PRES   REMARKS
DES MOINES     CLOUDY    29  25  85 SE5       30.27R FOG     WCI  24
IOWA CITY      SUNNY     23  19  85 SE5       30.33R WCI  17
FORT DODGE     CLOUDY    28  25  86 S6        30.24S WCI  22
$$

...NORTHERN ILLINOIS...


CITY           SKY/WX    TMP DP  RH WIND       PRES   REMARKS
CHICAGO-OHARE  CLOUDY    28  21  75 N7        30.30R WCI  21
CHICAGO-MIDWAY CLOUDY    31  22  69 N7        30.30R WCI  24
MOLINE         SUNNY     20  18  92 CALM      30.33R FOG
ROCKFORD       FLURRIES  27  21  78 NE5       30.32S WCI  22
PEORIA         SUNNY     24  19  81 CALM      30.34R HAZE
$$

NOTE: "FAIR" INDICATES FEW OR NO CLOUDS BELOW 12,000 FEET WITH NO
SIGNIFICANT WEATHER AND/OR OBSTRUCTIONS TO VISIBILITY. WIND
SPEEDS ARE IN MILES-PER-HOUR.



USA.gov is the U.S. government's official web portal to all federal, state and local government web resources and services.